Regional Weather Roundup
Issued by NWS San Diego, CA

Home | Current Version | Previous Version | Text Only | Print | Product List | Glossary On
Versions: 1 2 3 4 5 6 7 8 9 10 11 12 13 14 15 16 17 18 19 20 21 22 23 24 25 26 27 28 29 30 31 32 33 34 35 36 37 38 39 40 41 42 43 44 45 46 47 48 49 50
000
ASUS46 KSGX 171410
RWRSGX

SAN DIEGO HOURLY WEATHER ROUNDUP
NATIONAL WEATHER SERVICE SAN DIEGO CA
700 AM PDT WED SEP 17 2014

NOTE: "FAIR" INDICATES FEW OR NO CLOUDS BELOW 12,000 FEET WITH NO
SIGNIFICANT WEATHER AND/OR OBSTRUCTIONS TO VISIBILITY.

CAZ042-043-060-061-PZZ750-775-171500-

GREATER SAN DIEGO AREA

CITY           SKY/WX    TMP DP  RH WIND       PRES   REMARKS
LINDBERGH FLD  PTCLDY    76  70  82 NW3       29.73R
POINT LOMA       N/A     77  67  71 NW2         N/A
NATIONAL CITY    N/A     77  71  80 CALM      29.73R
IMPERIAL BEACH PTCLDY    72  69  90 CALM      29.73R
BROWN FIELD    CLEAR     80  65  59 CALM      29.74R
MIRAMAR MCAS   PTCLDY    75  67  76 CALM      29.74R
MONTGOMERY FLD CLEAR     79  69  71 CALM      29.74R

$$

NORTH SAN DIEGO COUNTY

CITY           SKY/WX    TMP DP  RH WIND       PRES   REMARKS
CAMP PENDLETON CLEAR     72  65  78 CALM      29.72R HAZE
OCEANSIDE AP   CLEAR     73  66  78 CALM      29.72R
OCEANSIDE HBR    N/A     73  70  91 NW2       29.75R
VISTA            N/A     74  67  81 CALM      29.70R
CARLSBAD       CLEAR     77  69  76 CALM      29.72R
DEL MAR          N/A     73  70  92 CALM      29.75R
LA JOLLA SCRIP   N/A     72  71  95 CALM      29.70R
FALLBROOK        N/A     79  71  75 CALM      29.72R
ESCONDIDO        N/A     80  66  62 CALM      29.73R
SAN MARCOS       N/A     79  66  66 CALM      29.70R
POWAY            N/A     76  66  71 CALM      29.73R

$$

EAST SAN DIEGO COUNTY

CITY           SKY/WX    TMP DP  RH WIND       PRES   REMARKS
RAMONA         CLEAR     75  58  55 E3        29.79R
SANTEE LAKES     N/A     74  68  81 CALM      29.73R
LA MESA          N/A     80  69  68 CALM      29.66R
JAMUL            N/A     77  63  61 CALM      29.70R
DESCANSO N       N/A     72  60  64 SE3       29.62R
MT. LAGUNA OBS   N/A     59  56  91 NE5       29.67R
CAMPO            N/A     69  59  70 NE5       29.86R

$$

ORANGE COUNTY AND THE LOS ANGELES BASIN

CITY           SKY/WX    TMP DP  RH WIND       PRES   REMARKS
JOHN WAYNE AP  CLEAR     82  59  45 CALM      29.72R
LAKE FOREST FR   N/A     80  61  51 CALM      29.61R
SANTA ANA        N/A     74  65  74 CALM      29.68R
HUNTINGTON BCH   N/A     70  66  88 CALM      29.75R
LOS ALAMITOS   CLEAR     73  65  77 CALM      29.73R
FULLERTON      CLEAR     78  61  55 CALM      29.72R
LONG BEACH     CLEAR     76  64  66 CALM      29.73R
L.A. AP        PTCLDY    75  64  68 W3        29.73R
L.A. DOWNTOWN  CLEAR     77  62  59 CALM      29.72R

$$

THE INLAND EMPIRE

CITY           SKY/WX    TMP DP  RH WIND       PRES   REMARKS
CORONA         CLEAR     73  64  73 CALM      29.76R
CHINO          CLEAR     76  67  73 CALM      29.77R
ONTARIO        CLEAR     82  66  58 CALM      29.77R
SAN BERNARDINO CLEAR     75  57  53 CALM      29.79
RIVERSIDE AP   CLEAR     81  64  56 NE3       29.77R
RIV CYN CREST    N/A     80  72  76 CALM      29.76R
MORENO VALLEY    N/A     77  67  69 CALM        N/A
MARCH ARB      CLEAR     78  65  63 SW2       29.81R
HORSETHIEF CYN   N/A     77  63  61 S1        29.76R
PERRIS           N/A     80  66  62 CALM      29.78R
MENIFEE          N/A     73  70  90 CALM      29.85R
HEMET EAST       N/A     76  59  57 CALM      29.72R
FRENCH VALLEY  FAIR      75  66  73 CALM      29.80R
TEMECULA         N/A     74  69  86 CALM      29.76R

$$

SAN BERNARDINO AND RIVERSIDE COUNTY MOUNTAINS

CITY           SKY/WX    TMP DP  RH WIND       PRES   REMARKS
BIG BEAR AP    CLEAR     46  45  93 CALM      30.18R
ANGELUS OAKS     N/A     60  52  76 CALM      29.68S
PINE COVE        N/A     62  55  77 CALM      29.64R

$$

SOUTHERN DESERT INCLUDING THE COACHELLA VALLEY

CITY           SKY/WX    TMP DP  RH WIND       PRES   REMARKS
PALM SPRINGS   CLEAR     84  66  54 W3        29.78R
THOUSAND PALMS   N/A     82  68  63 W1        29.73R
PALM DESERT      N/A     82  71  68 CALM        N/A
THERMAL        CLEAR     77  68  73 CALM      29.72R
BLYTHE         CLOUDY    81  72  74 CALM      29.77R
IMPERIAL AP    CLEAR     85  65  51 CALM      29.73R
EL CENTRO NAS  PTCLDY    81  64  56 W5        29.73S
YUMA AZ        MOCLDY    84  72  67 NW6       29.75R
MEXICALI       PTCLDY    81  73  78 CALM      29.75

$$

UPPER DESERT

CITY           SKY/WX    TMP DP  RH WIND       PRES   REMARKS
VICTORVILLE AP CLEAR     70  61  73 S3        29.91R
HESPERIA         N/A     69  60  70 W3        29.83R
APPLE VALLEY     N/A     66  59  79 CALM      29.98R
PALMDALE       CLEAR     71  49  45 CALM      29.88S
LANCASTER      CLEAR     69  40  34 SW3       29.88R
EDWARDS AFB    PTCLDY    70  40  33 N3        29.85R
DAGGETT        CLEAR     74  61  63 W3        29.85R
29 PALMS N     CLEAR     74  63  68 CALM      29.94R
NEEDLES        CLEAR     79  71  76 CALM      29.82R

$$

REGIONAL REPORTS

CITY           SKY/WX    TMP DP  RH WIND       PRES   REMARKS
SANTA BARBARA  CLEAR     64  60  87 CALM      29.73R
SANDBERG       CLEAR     75  34  22 SW9       30.02R
MT. WILSON       N/A     64  55  72 SW1         N/A
LAS VEGAS NV   PTCLDY    80  58  46 SE7       29.85R
PHOENIX AZ     CLOUDY    81  67  62 NE13      29.79S
TIJUANA        PTCLDY    86  57  37 E8        29.75R
ENSENADA NW      N/A     78  32  18 E3        29.68R

$$

OFFSHORE ISLANDS

CITY           SKY/WX    TMP DP  RH WIND       PRES   REMARKS
CATALINA ARPT  CLEAR     82  54  37 SW5       29.82R
SAN CLEMENTE I CLEAR     69  64  84 SW8       29.76
SAN NICOLAS IS CLEAR     67  59  75 NW20G28   29.75R

$$

MARINE AND OFFSHORE BUOY REPORTS

STATION/POSITION SKY/WX   TEMP    WIND        PRES    SWELL
                          AIR SEA DIR/SP/G            HT/PER/DIR
                          (F)     (DEG/KT/KT) (MB)    (FT/S/D)
TANNER BANKS               68 70  310/ 17/ 19 1007.5R   5/230/17
S CLEMENTE BASIN           72 74  300/ 12/ 14 1006.5R   5/230/17
SAN NICOLAS IS.               67                N/A     5/200/18
SO. S. ROSA ISLA           66 66  320/ 17/ 21 1007.1R   3/17
W. S. BARBARA CH           61 60  310/ 21/ 25 1006.8R   3/220/17
M. S. BARBARA CH           67 66  280/  2/  4 1006.5R
S. MONICA BASIN            72 74  330/ 12/ 14 1006.2R   3/180/17
S PEDRO CHANNEL               71                N/A     2/200/18
DANA POINT                    71                N/A     3/200/18
OCEANSIDE OFFSHR              73                N/A     3/210/18
TORREY PINES OTR              74                N/A     3/210/18
LA JOLLA 1                 73 67   CALM  /  1 1006.7S
MISSION BAY BUOY              74                N/A     3/200/18
SAN DIEGO BAY                 76              1007.0S

$$




USA.gov is the U.S. government's official web portal to all federal, state and local government web resources and services.